Flag for U.S.A. Weather past 2 weeks in Vevay, Indiana, U.S.A.

Now
19 °F

Passing clouds.


Feels Like: 14 °F
Forecast: 19 / 43 °F
Wind: 3 mph from South

Location: Cincinnati / Northern Kentucky International Airport

Current Time: Jan 31, 2015 at 7:33:52 AM

Latest Report: Jan 31, 2015 at 6:52 AM


Visibility: 10 mi

Pressure: 30.38 "Hg

Humidity: 74%

Dew point: 12 °F

Location of VevayLocation

Historic Weather in Vevay — Graph

°F

Vevay temperature yesterday

Maximum temperature yesterday: 34 °F (at 12:52 AM)
Minimum temperature yesterday: 20 °F (at 11:52 PM)
Average temperature yesterday: 29 °F

Past Weeks' High & Low Weather Summary

 TemperatureHumidityPressure
High54 °F (Jan 20, 2:52 PM)93% (Jan 18, 4:52 AM)30.47 "Hg (Jan 18, 4:52 AM)
Low14 °F (Jan 28, 4:52 AM)38% (Jan 17, 3:52 PM)29.65 "Hg (Jan 25, 3:52 PM)
Average34 °F70%30.05 "Hg
* Reported Jan 16 5:52 AM — Jan 31 5:52 AM, Vevay, Weather by CustomWeather, © 2014

Note: Actual official high and low records may vary slightly from our data, if they occured in-between our weather recording intervals... More about our weather records

Advertising

Vevay weather history for previous 24 hours

 ConditionsComfort  
Time TempWeatherWind HumidityBarometerVisibility
5:52 AM
Jan 31
19 °FClear.5 mph74%30.38 "Hg10 mi
4:52 AM18 °FClear.5 mph80%30.39 "Hg10 mi
3:52 AM18 °FClear.5 mph80%30.42 "Hg10 mi
2:52 AM20 °FClear.3 mph78%30.43 "Hg10 mi
1:52 AM21 °FClear.No wind74%30.44 "Hg10 mi
12:52 AM22 °FClear.No wind72%30.44 "Hg10 mi
11:52 PM
Jan 30
20 °FClear.No wind78%30.45 "Hg10 mi
10:52 PM23 °FClear.No wind68%30.46 "Hg10 mi
9:52 PM24 °FClear.No wind65%30.46 "Hg10 mi
8:52 PM21 °FClear.No wind74%30.47 "Hg10 mi
7:52 PM24 °FPassing clouds.No wind65%30.47 "Hg10 mi
6:52 PM26 °FPassing clouds.6 mph63%30.46 "Hg10 mi
5:52 PM28 °FPassing clouds.5 mph58%30.46 "Hg10 mi
4:52 PM30 °FPassing clouds.6 mph51%30.45 "Hg10 mi
3:52 PM31 °FScattered clouds.9 mph49%30.45 "Hg10 mi
2:52 PM30 °FPartly sunny.7 mph51%30.45 "Hg10 mi
1:52 PM29 °FPartly sunny.10 mph54%30.45 "Hg10 mi
12:52 PM30 °FPartly sunny.10 mph51%30.46 "Hg10 mi
10:52 AM29 °FPartly sunny.20 mph54%30.46 "Hg10 mi
9:52 AM27 °FLight snow. Partly sunny.18 mph63%30.44 "Hg10 mi
8:52 AM28 °FPartly sunny.22 mph53%30.40 "Hg10 mi
7:52 AM29 °FMostly cloudy.20 mph58%30.37 "Hg10 mi
Weather by CustomWeather, © 2014

See weather overviewHow to use our weather pages